TimeCST,TemperatureF,Dew PointF,Humidity,Sea Level PressureIn,VisibilityMPH,Wind Direction,Wind SpeedMPH,Gust SpeedMPH,PrecipitationIn,Events,Conditions,WindDirDegrees,DateUTC
12:53 AM,37.9,32.0,79,29.91,10.0,South,8.1,-,N/A,,Clear,170,2012-12-01 06:53:00
1:53 AM,37.0,32.0,82,29.87,10.0,South,9.2,-,N/A,,Clear,170,2012-12-01 07:53:00
2:53 AM,37.0,33.1,86,29.86,9.0,South,10.4,-,N/A,,Clear,180,2012-12-01 08:53:00
3:53 AM,35.6,33.8,93,29.83,8.0,South,8.1,-,N/A,,Clear,170,2012-12-01 09:53:00
4:01 AM,35.6,33.8,93,29.84,8.0,SSW,5.8,-,N/A,,Scattered Clouds,200,2012-12-01 10:01:00
4:09 AM,35.6,32.0,87,29.83,8.0,SSW,8.1,-,N/A,,Mostly Cloudy,210,2012-12-01 10:09:00
4:27 AM,35.6,33.8,93,29.84,7.0,SSW,5.8,-,N/A,,Scattered Clouds,200,2012-12-01 10:27:00
4:46 AM,33.8,32.0,93,29.82,7.0,South,3.5,-,N/A,,Mostly Cloudy,170,2012-12-01 10:46:00
4:53 AM,35.1,32.0,89,29.85,7.0,South,4.6,-,N/A,,Mostly Cloudy,180,2012-12-01 10:53:00
5:50 AM,37.4,37.4,100,29.83,2.0,South,5.8,-,N/A,,Overcast,180,2012-12-01 11:50:00
5:53 AM,37.9,37.0,97,29.86,1.8,South,5.8,-,N/A,,Overcast,190,2012-12-01 11:53:00
6:05 AM,37.4,37.4,100,29.82,0.5,SSW,4.6,-,N/A,Fog,Fog,210,2012-12-01 12:05:00
6:09 AM,37.4,37.4,100,29.82,0.2,SSW,5.8,-,N/A,Fog,Fog,200,2012-12-01 12:09:00
6:53 AM,39.0,39.0,100,29.86,0.2,WSW,4.6,-,N/A,Fog,Fog,240,2012-12-01 12:53:00
7:32 AM,39.2,39.2,100,29.84,0.2,SSW,4.6,-,N/A,Fog,Fog,210,2012-12-01 13:32:00
7:53 AM,39.9,39.9,100,29.87,0.2,SW,6.9,-,N/A,Fog,Fog,220,2012-12-01 13:53:00
8:53 AM,41.0,41.0,100,29.88,0.2,SSW,6.9,-,N/A,Fog,Fog,200,2012-12-01 14:53:00
9:53 AM,42.1,42.1,100,29.88,0.2,SSW,12.7,-,N/A,Fog,Fog,210,2012-12-01 15:53:00
10:45 AM,44.6,44.6,100,29.85,0.5,WSW,9.2,-,N/A,Fog,Fog,240,2012-12-01 16:45:00
10:53 AM,44.6,44.6,100,29.85,0.5,SW,8.1,-,N/A,Fog,Fog,230,2012-12-01 16:53:00
11:17 AM,44.6,44.6,100,29.84,3.0,SW,6.9,-,N/A,,Overcast,220,2012-12-01 17:17:00
11:53 AM,45.0,44.1,97,29.86,7.0,SW,8.1,-,N/A,,Overcast,230,2012-12-01 17:53:00
12:23 PM,48.2,44.6,87,29.82,9.0,SW,6.9,-,N/A,,Mostly Cloudy,220,2012-12-01 18:23:00
12:32 PM,48.2,44.6,87,29.82,9.0,WSW,6.9,-,N/A,,Scattered Clouds,240,2012-12-01 18:32:00
12:53 PM,50.0,44.1,80,29.82,10.0,SSW,9.2,-,N/A,,Clear,200,2012-12-01 18:53:00
1:53 PM,55.0,43.0,64,29.80,10.0,SSW,10.4,-,N/A,,Clear,210,2012-12-01 19:53:00
2:53 PM,60.1,43.0,53,29.79,10.0,South,8.1,-,N/A,,Clear,190,2012-12-01 20:53:00
3:53 PM,61.0,42.1,50,29.81,10.0,SSW,5.8,-,N/A,,Clear,210,2012-12-01 21:53:00
4:53 PM,54.0,39.0,57,29.82,10.0,SSW,6.9,-,N/A,,Clear,210,2012-12-01 22:53:00
5:53 PM,53.1,39.9,61,29.84,10.0,South,5.8,-,N/A,,Clear,180,2012-12-01 23:53:00
6:53 PM,42.1,35.1,76,29.87,10.0,WSW,4.6,-,N/A,,Clear,250,2012-12-02 00:53:00
7:53 PM,44.1,36.0,73,29.87,10.0,SW,10.4,-,N/A,,Clear,230,2012-12-02 01:53:00
8:53 PM,46.9,36.0,66,29.89,10.0,West,9.2,-,N/A,,Clear,260,2012-12-02 02:53:00
9:53 PM,46.9,35.1,63,29.90,10.0,West,12.7,-,N/A,,Clear,280,2012-12-02 03:53:00
10:53 PM,44.1,34.0,68,29.93,10.0,West,9.2,-,N/A,,Clear,280,2012-12-02 04:53:00
11:53 PM,44.1,34.0,68,29.93,10.0,WNW,10.4,-,N/A,,Clear,290,2012-12-02 05:53:00